Location: Newark
(37.7892°N, 97.1083°W)
Time: 04:11:28
(UTC+00:00)

ISS - Pass Details

Date: 31 January 2021
Orbit: 417 x 422 km, 51.6° (Epoch: 03 March)

Event Time Altitude Azimuth Distance (km) Brightness Sun altitude
Rises 01:37:18 0° 320° (NW) 2,375 0.6 -21.3°
Reaches altitude 10° 01:40:01 10° 343° (NNW) 1,509 -0.8 -21.9°
Enters shadow 01:40:23 12° 348° (NNW) 1,418 -1.0 -21.9°
